{"data":{"norad_id":81667,"intl_designator":"","name":"UNKNOWN","alt_names":[],"object_type":"UNKNOWN","status":"UNKNOWN","operator":null,"country":null,"launch_date":null,"launch_site_code":null,"launch_vehicle":null,"mission":null,"orbit_class":"UNKNOWN","rcs_meters":null,"size_class":null,"mass_kg":null,"dimensions":null,"purposes":[],"wikipedia_slug":null,"has_3d_model":false,"image_url":null,"decayed_at":null,"tle_current":{"epoch":"2026-05-23T03:14:47.420448Z","epoch_age_seconds":226430,"freshness":"STALE","line1":"1 81667U          26143.13527107  .00001578  00000+0  42397-3 0  9998","line2":"2 81667  74.0381  94.2946 0014398 341.2216  18.8410 14.48874704480013","mean_motion":14.48874704,"eccentricity":0.0014398,"inclination_deg":74.0381,"raan_deg":94.2946,"arg_perigee_deg":341.2216,"mean_anomaly_deg":18.841,"bstar":0.00042397,"rev_number":48001,"period_min":99.387476089168,"perigee_km":719.09289910959,"apogee_km":739.55955021132,"semimajor_km":7107.4632246605,"source":"CELESTRAK","updated_at":"2026-05-25T13:38:11.081059Z"}}}